Content
SEND FEEDBACK

Daily
Averages
Monthly
Summary
United States of America

ADIN, CALIFORNIA


Home > North America > United States > California
Elevation: 6658 feet     Latitude: 41 12N     Longitude: 120 57W

WEATHER
 
SELECT A DAY
Number of Records: 162,849;   Date Range: 1/3/95 - 10/23/14
 
SHARE

PRINT THIS DATA

[ ← Previous Day ]
WEATHER ALMANAC - FEBRUARY 13, 2013
[ Next Day → ]
[ °C ]   °F
Weather ElementAverageHighLow
Temperature32.4 °F50 °F (2:55 pm)19 °F (5:55 am)
Dewpoint25 °F30 °F (2:55 pm)18 °F (3:55 am)
Humidity77.3 %96 % (1:55 am)43 % (3:55 pm)
Barometer30.43 in30.50 in (9:55 am)30.35 in (2:55 pm)
Wind Speed1.6 mph6.9 mph (4:55 pm)
Weather ElementAverage
Visibility9.2 mi
Wind DirectionENE (80.4 °)

Weather ElementTotal
Precipitation---
Heating Degree Days30.5 (Base 65)
Averaged from 23 records on February 13, 2013
WEATHER CONDITIONS BREAKOUT
WIND DIRECTION BREAKOUT
WEATHER BY HOUR - FEBRUARY 13, 2013
[ °C ]   °F
Local TimeTemperatureDewpointHumidityBarometerVisibilityWind DirectionWind SpeedGust SpeedPrecipitationEventsConditions
1:55 AM21.0 °F19.9 °F96 %30.45 in9.0 miCalmClear
2:55 AM21.9 °F19.9 °F92 %30.44 in4.0 miCalmClear
3:55 AM21.0 °F18.0 °F88 %30.45 in6.0 miCalmClear
4:55 AM19.9 °F18.0 °F92 %30.45 in8.0 miENE (70°)3.5 mphClear
5:55 AM19.0 °F18.0 °F96 %30.45 in10.0 miCalmScattered Clouds
6:55 AM24.1 °F21.9 °F91 %30.46 in10.0 miNorth (360°)3.5 mphOvercast
7:55 AM27.0 °F25.0 °F92 %30.48 in10.0 miCalmOvercast
8:55 AM28.0 °F26.1 °F92 %30.49 in10.0 miSSW (210°)4.6 mphOvercast
9:55 AM28.9 °F27.0 °F92 %30.50 in10.0 miCalmOvercast
10:55 AM34.0 °F28.0 °F79 %30.48 in10.0 miCalm0.00 inPartly Cloudy
11:55 AM39.0 °F28.9 °F67 %30.45 in10.0 miCalmClear
12:55 PM43.0 °F28.9 °F58 %30.41 in10.0 miCalmClear
1:55 PM46.9 °F26.1 °F44 %30.38 in10.0 miCalmClear
2:55 PM50.0 °F30.0 °F46 %30.35 in10.0 miCalmClear
3:55 PM50.0 °F28.0 °F43 %30.35 in10.0 miNNW (340°)3.5 mphClear
4:55 PM48.0 °F28.9 °F48 %30.35 in10.0 miNW (320°)6.9 mphClear
5:55 PM39.9 °F27.0 °F60 %30.38 in10.0 miWNW (290°)4.6 mphClear
6:55 PM36.0 °F27.0 °F70 %30.38 in10.0 miCalmClear
7:55 PM32.0 °F27.0 °F82 %30.39 in10.0 miCalmClear
8:55 PM28.9 °F26.1 °F89 %30.42 in10.0 miSSE (160°)4.6 mphClear
9:55 PM28.9 °F26.1 °F89 %30.43 in10.0 miCalmClear
10:55 PM28.0 °F25.0 °F88 %30.43 in5.0 miCalmClear
11:55 PM28.9 °F25.0 °F85 %30.43 in9.0 miEast (100°)5.8 mphClear
Hourly data recorded from KAAT, located miles away from Adin, California







STORIES FROM OUR PARTNERS